Powrót do katalogu

STARLINK-5444

AktywnyŁącznośćVLEO
NORAD 54768·PAYLOAD·🇺🇸 United States

Wystrzelony Dec 17, 2022 z Cape Canaveral Space Force Station

Loading…

Następne Przeloty (najbliższe 24 godziny)

TLE

ŚwieżeSource: CelesTrak SupGP

Epoka: Sep 15, 2026, 02:43 UTC

1 54768C 22175L   26258.11368056 -.00030925  00000+0 -99443-3 0  2580
2 54768  53.1576 244.9382 0001286  91.8298 296.5400 15.31718267    13

Śledź STARLINK-5444 w czasie rzeczywistym z AllMySat

Download on the App Store